This is the latest recevied weather packets stored in our database for station/object DB0HOL-4. If no packets are shown the sender has not sent any weather packets the latest 10 day(s).
| Time | Temp. | Humidity | Pressure | Rain* | Wind** | Luminosity | Snow |
|---|---|---|---|---|---|---|---|
| 1778042031 | 8.33° C | 99% | 1003 hPa | 0 mm | - | 0 W/m² | - |
| 1778041597 | 8.33° C | 99% | 1003 hPa | 0 mm | - | 0 W/m² | - |
| 1778039797 | 8.33° C | 99% | 1003 hPa | 0 mm | - | 0 W/m² | - |
| 1778038035 | 8.33° C | 99% | 1003.7 hPa | 0 mm | - | 0 W/m² | - |
| 1778037997 | 8.33° C | 99% | 1003.7 hPa | 0 mm | - | 0 W/m² | - |
| 1778036260 | 8.89° C | 99% | 1003.7 hPa | 0 mm | - | 0 W/m² | - |
| 1778036197 | 8.89° C | 99% | 1003.7 hPa | 0 mm | - | 0 W/m² | - |
| 1778034398 | 8.89° C | 99% | 1004 hPa | 0 mm | - | 0 W/m² | - |
| 1778032597 | 8.89° C | 99% | 1004 hPa | 0 mm | - | 0 W/m² | - |
| 1778030797 | 8.89° C | 99% | 1004.4 hPa | 0 mm | - | 0 W/m² | - |
| 1778028997 | 8.89° C | 99% | 1004.4 hPa | 0 mm | - | 0 W/m² | - |
| 1778027197 | 8.89° C | 99% | 1004.7 hPa | 0 mm | - | 0 W/m² | - |
| 1778025397 | 8.89° C | 99% | 1005 hPa | 0 mm | - | 0 W/m² | - |
| 1778023597 | 8.89° C | 99% | 1005 hPa | 0 mm | - | 0 W/m² | - |
| 1778018197 | 10° C | 99% | 1005.4 hPa | 0 mm | - | 0 W/m² | - |
| 1778016397 | 10° C | 99% | 1005.4 hPa | 0 mm | - | 0 W/m² | - |
| 1778014597 | 10° C | 99% | 1005.4 hPa | 0 mm | - | 0 W/m² | - |
| 1778012797 | 10° C | 99% | 1005 hPa | 0 mm | - | 0 W/m² | - |
| 1778010997 | 10° C | 99% | 1005 hPa | 0 mm | - | 0 W/m² | - |
| 1778009197 | 10.56° C | 99% | 1005.4 hPa | 0 mm | - | 0 W/m² | - |
| 1778007397 | 10.56° C | 99% | 1005.4 hPa | 0 mm | - | 4 W/m² | - |
| 1778005598 | 10.56° C | 99% | 1005.4 hPa | 0 mm | - | 56 W/m² | - |
| 1778003797 | 11.11° C | 99% | 1005.4 hPa | 0 mm | - | 82 W/m² | - |
| 1778001997 | 11.11° C | 99% | 1005.7 hPa | 0 mm | - | 152 W/m² | - |
| 1778000197 | 11.11° C | 99% | 1006 hPa | 0 mm | - | 281 W/m² | - |
* Rain latest hour (hover to see other rain measurements)
** Current wind speed in m/s (hover to see current wind gust speed)